Lid_Strength_Index
5 5 5 5 5 5 5 5 5 5 4 4 4 4 3 3 4 8 10 7 4 1 2 8 10 10 11 12 12 13 17 19 18 17 16 13 14 11 11 11 10 9 9 8 6
4 5 5 5 5 6 5 5 5 5 4 4 4 4 4 4 8 11 7 3 2 1 8 10 11 11 14 13 13 15 18 17 15 14 15 13 13 13 12 11 10 10 7 6 6
5 5 5 6 6 6 6 5 5 5 4 4 4 4 4 5 11 11 5 3 2 3 7 9 10 12 14 14 13 14 16 13 13 12 12 13 13 11 12 12 11 10 8 7 6
5 5 5 6 7 6 6 5 5 5 4 4 4 4 3 8 15 10 4 3 3 7 8 11 12 14 15 15 13 14 12 12 11 10 11 13 12 12 12 11 9 8 8 6 7
5 5 5 6 7 6 6 6 5 5 5 5 4 3 8 12 12 8 5 6 7 8 10 12 13 14 15 14 13 13 13 11 11 11 12 11 12 12 11 9 8 8 7 7 8
5 6 6 7 7 6 6 6 6 5 5 5 4 4 10 14 9 8 8 8 8 9 10 10 12 12 13 13 14 13 12 12 11 11 11 12 12 11 11 9 9 9 9 8 8
6 6 6 7 7 7 6 6 6 5 5 5 5 7 12 13 9 9 8 8 8 9 10 9 10 11 12 13 12 12 14 13 12 11 12 11 13 12 10 9 11 10 9 8 8
6 6 6 7 7 7 6 6 6 6 6 5 4 10 14 9 10 9 8 8 7 8 9 9 9 10 11 11 12 13 15 16 13 12 11 12 16 12 10 11 11 10 10 9 8
5 6 6 6 7 7 6 6 6 6 5 5 10 12 15 8 11 9 9 10 9 8 8 7 9 12 11 14 17 17 19 18 15 12 12 13 15 12 10 11 12 11 10 9 8
5 6 6 6 7 6 6 6 6 8 9 9 11 14 13 13 11 10 9 9 10 10 10 10 13 16 16 16 23 20 20 17 18 14 12 13 14 12 11 11 13 13 11 10 9
5 5 6 6 6 6 9 13 14 15 13 15 15 14 13 11 10 10 10 10 10 12 14 13 17 19 18 16 16 19 20 19 16 13 14 15 14 13 11 12 13 13 12 11 10
5 5 6 6 6 6 11 14 14 13 17 13 13 13 12 11 13 12 10 13 13 16 15 16 18 14 13 14 15 16 18 20 17 14 14 17 15 12 11 12 13 13 13 12 11
5 5 6 6 6 11 13 13 11 12 16 15 14 13 13 12 14 14 11 12 14 15 16 18 15 12 13 14 16 16 16 17 18 15 14 15 17 15 11 12 12 12 12 12 13
4 5 6 6 12 13 14 11 10 11 19 18 16 14 13 12 15 12 12 13 14 16 16 15 13 13 14 15 16 17 15 15 15 16 21 17 23 18 14 13 13 13 14 13 12
4 4 5 7 13 13 12 10 11 11 22 17 17 12 13 15 15 15 12 13 16 15 16 17 15 15 15 16 15 16 14 15 15 16 18 19 20 18 15 14 15 14 14 14 13
4 4 5 7 11 11 11 11 12 17 22 20 17 16 16 16 15 14 14 13 14 16 15 16 14 15 15 15 15 14 15 15 16 18 23 20 20 20 17 14 15 14 14 14 13
4 5 7 9 13 10 11 13 17 19 18 21 20 17 18 18 17 16 17 18 19 22 22 17 16 15 14 16 15 15 17 21 22 24 22 19 20 19 15 12 13 14 14 15 15
4 5 8 10 10 11 12 16 19 21 22 19 18 18 19 18 18 17 18 20 17 19 22 21 21 16 15 16 17 17 18 21 24 23 22 19 21 19 14 12 13 13 14 15 16
4 10 11 11 10 11 15 17 18 20 18 19 18 21 21 19 19 18 20 20 17 16 20 20 20 16 15 15 15 17 20 17 19 25 23 20 19 18 13 14 14 14 14 15 15
9 10 12 10 10 12 18 18 20 18 17 18 20 20 24 22 20 20 19 18 17 16 16 17 20 17 15 15 15 16 16 19 20 25 25 22 21 20 17 15 14 15 15 15 15
9 12 11 10 11 16 22 21 20 17 17 18 20 23 21 22 21 20 20 18 16 16 15 16 18 19 17 17 18 17 18 18 18 19 22 23 20 18 18 16 15 13 14 15 15
10 16 12 11 19 24 23 21 17 18 17 18 18 19 20 20 21 21 19 18 16 15 16 16 17 22 20 17 16 17 17 18 21 21 21 20 20 16 16 15 14 14 12 14 15
14 16 12 14 22 25 24 23 19 19 18 18 19 18 19 19 21 19 19 17 16 15 17 15 20 24 21 18 17 18 17 17 18 19 20 22 19 16 16 15 15 14 13 14 15
14 19 16 16 20 21 23 23 21 18 18 18 18 18 19 20 21 21 19 17 16 15 12 14 18 19 19 19 18 19 18 17 18 22 20 20 19 17 17 16 15 14 13 14 15
15 17 17 20 20 20 18 20 21 22 19 18 19 19 19 22 21 22 20 18 17 14 16 17 22 21 19 18 18 18 18 18 18 19 19 18 19 17 16 16 16 15 14 14 15
15 18 17 18 17 18 17 21 18 19 19 20 19 18 19 20 18 20 19 19 18 17 17 17 25 25 24 20 20 19 19 17 18 18 18 18 18 15 15 16 16 15 15 14 14
11 12 14 16 17 18 18 18 19 17 18 17 17 18 19 18 18 18 18 17 17 17 21 21 24 24 24 25 23 21 20 18 18 17 17 18 16 16 16 15 15 15 15 14 14